KUIPER-00177

Last updated on Sun Mar 15 2026 00:02:06 GMT+0000 (Coordinated Universal Time)

1 67766U 26030C 26073.58335648 -.01253429 00000+0 -49461-1 0 9995 2 67766 51.8851 195.5490 0002679 18.2534 0.8422 15.27918720 5746
UTC large
Height (km)
Speed (km/s)
/
Latitude / Longitude
Inclination (degrees)
Orbital Period (minutes)
Azimuth
Elevation
Range (km)
Doppler Factor

Next 0 passes for location: London (51.5072 / 0.1276)

Sorry there are no passes over London.